Regional Weather Roundup
Issued by NWS

Home | Current Version | Previous Version | Text Only | Print | Product List | Glossary On
Versions: 1 2 3 4 5 6 7 8 9 10 11 12 13 14 15 16 17 18 19 20 21 22 23 24 25 26 27 28 29 30 31 32 33 34 35 36 37 38 39 40 41 42 43 44 45 46 47 48 49 50
000
ASUS46 KPQR 290310
RWROR

OREGON REGIONAL WEATHER ROUNDUP
NATIONAL WEATHER SERVICE PORTLAND OR
800 PM PDT THU APR 28 2016

NOTE: "FAIR" INDICATES FEW OR NO CLOUDS BELOW 12,000 FEET WITH
NO SIGNIFICANT WEATHER AND/OR OBSTRUCTIONS TO VISIBILITY.

ORZ001>013-290400-
NORTHWEST OREGON


CITY           SKY/WX    TMP DP  RH WIND       PRES   REMARKS
ASTORIA        CLOUDY    54  45  71 NW9       30.13F
NEWPORT        PTCLDY    52  46  82 N8        30.18R
PORTLAND       CLOUDY    57  47  69 NW7       30.11R
VANCOUVER WA   CLOUDY    57  47  69 NW5       30.10S
SCAPPOOSE      CLOUDY    54  50  86 W3        30.10S
HILLSBORO      CLOUDY    56  48  74 CALM      30.10S
AURORA         CLOUDY    58  46  64 CALM      30.10S
MCMINNVILLE    CLOUDY    58  46  64 W3        30.11R
SALEM          CLEAR     57  43  59 NW7       30.09S
CORVALLIS        N/A     55  45  67 NW7       30.12R
EUGENE         MOCLDY    58  47  66 CALM      30.10F
$$

ORZ021-028-290400-
SOUTHWEST OREGON


CITY           SKY/WX    TMP DP  RH WIND       PRES   REMARKS
NORTH BEND     CLEAR     54  50  87 N9        30.15F
BROOKINGS      CLEAR     52  48  86 NW10      30.07R
ROSEBURG       CLEAR     58  46  64 NW5       30.09F
SEXTON SUMMIT  PTCLDY    42  38  85 N9G16     30.08R
MEDFORD        CLEAR     61  39  44 N10       30.06R
$$

ORZ014>016-041-290400-
COLUMBIA GORGE


CITY           SKY/WX    TMP DP  RH WIND       PRES   REMARKS
TROUTDALE      CLOUDY    58  46  64 CALM      30.10S
THE DALLES     CLEAR     60  39  45 W16       30.00R
$$

ORZ029>031-041-044-049-050-061>064-502-503-505>511-290400-
EASTERN OREGON


CITY           SKY/WX    TMP DP  RH WIND       PRES   REMARKS
REDMOND        CLEAR     49  33  54 NW16      30.03R
BEND           PTCLDY    48  34  57 NW15      30.02R
PRINEVILLE     CLEAR     50  34  53 NW12      30.02R
KLAMATH FALLS  PTCLDY    52  34  50 NW10      30.01R
LAKEVIEW       CLEAR     46  28  49 N5        30.00S
HERMISTON      CLEAR     64  38  38 W10       29.90S
PENDLETON      PTCLDY    61  38  42 N3        29.92S
JOHN DAY       MOCLDY    52  37  55 NW6       29.97S
MEACHAM        CLEAR     48  37  65 CALM      29.97S
LA GRANDE      MOCLDY    55  34  44 NW10      29.93R
BAKER CITY     CLOUDY    50  37  61 N7        29.94R
BURNS          CLEAR     50  33  52 W12       29.94R
ROME             N/A     54  41  61 S5        29.89R
ONTARIO        PTCLDY    60  36  40 N10       29.87R
$$



USA.gov is the U.S. government's official web portal to all federal, state and local government web resources and services.